Weather in Rancagua

Chile     34°09′28″S   70°43′40″W
temp.,
°C
wind,
m/s
gust,
m/s
humid.,
%
clouds,
%
prec.,
mm/h
press.,
hPa
HPBL,
m
25 may, wed
wed2523:00+13se0071100 0.0 101910
02:00+11wsw1179100 0.0 102010
05:00+10ssw118899 0.0 102013
08:00+9ssw0190100 0.0 102016
11:00+13sw2270100 0.0 1019324
14:00+17sw2253100 0.0 1017549
17:00+16wsw225791 0.0 101679
20:00+10ssw1182100 0.0 101811
26 may, thu
thu2623:00+9sw1186100 0.0 101812
02:00+8sw118498 0.0 101710
05:00+8ssw0182100 0.0 101710
08:00+8s117947 0.0 101710
11:00+13sw1158100 0.0 1017232
14:00+16sw1149100 0.0 1016371
17:00+14ssw2259100 0.0 101649
20:00+11s1169100 0.0 101817
27 may, fri
fri2723:00+10ene0073100 0.0 101810
02:00+9sw1178100 0.0 101910
05:00+9ssw0079100 0.0 101810
08:00+9ssw0075100 0.0 101910
11:00+12sw1163100 0.0 1019175
14:00+16wsw2147100 0.0 1016437
17:00+14wsw2256100 0.0 101623
20:00+11sw1169100 0.0 101710
28 may, sat
sat2823:00+10ssw1173100 0.0 101710
02:00+10sw1173100 0.0 101610
05:00+9ssw1176100 0.0 101513
08:00+9sse1176100 0.0 101616
11:00+12sw1161100 0.0 1016178
14:00+13sw2255100 0.0 1016267
17:00+13sse0152100 0.0 101652
20:00+12e1153100 0.0 101629
29 may, sun
sun2923:00+10sw1263100 0.0 101651
02:00+10wsw0164100 0.0 101625
05:00+10e0160100 0.0 101531
08:00+10wnw0163100 0.0 101520
11:00+15w0141100 0.0 1015468
14:00+19wsw1532100 0.0 10141831
17:00+16sw224163 0.0 101468
20:00+11e115694 0.0 101613